Flag for Canada Weather past 2 weeks in Camrose, Alberta, Canada

Now
-9 °F

Passing clouds.


Feels Like: -19 °F
Forecast: -10 / 9 °F
Wind: 3 mph from South

Location: Edmonton International

Current Time: Feb 1, 2015 at 6:22:12 AM

Latest Report: Feb 1, 2015 at 6:00 AM


Visibility: 15 mi

Pressure: 30.41 "Hg

Humidity: 77%

Dew point: -15 °F

Location of CamroseLocation

Historic Weather in Camrose — Graph

°F

Camrose temperature yesterday

Maximum temperature yesterday: 7 °F (at 12:00 AM)
Minimum temperature yesterday: -2 °F (at 10:53 PM)
Average temperature yesterday: 4 °F

Past Weeks' High & Low Weather Summary

 TemperatureHumidityPressure
High48 °F (Jan 22, 2:00 PM)100% (Jan 24, 12:00 AM)30.68 "Hg (Jan 24, 12:00 AM)
Low-8 °F (Feb 1, 1:00 AM)43% (Jan 25, 5:00 PM)29.56 "Hg (Jan 18, 1:00 PM)
Average27 °F78%30.07 "Hg
* Reported Jan 17 5:00 AM — Feb 1 5:00 AM, Camrose, Weather by CustomWeather, © 2014

Note: Actual official high and low records may vary slightly from our data, if they occured in-between our weather recording intervals... More about our weather records

Advertising

Camrose weather history for previous 24 hours

 ConditionsComfort  
Time TempWeatherWind HumidityBarometerVisibility
5:00 AM
Feb 1
-8 °FPassing clouds.6 mph77%30.41 "Hg15 mi
4:00 AM-8 °FPassing clouds.6 mph77%30.45 "Hg15 mi
3:00 AM-8 °FPassing clouds.6 mph77%30.48 "Hg15 mi
2:00 AM-4 °FClear.5 mph77%30.50 "Hg15 mi
1:00 AM-8 °FClear.6 mph84%30.52 "Hg15 mi
12:00 AM-4 °FPassing clouds.8 mph77%30.53 "Hg15 mi
11:00 PM
Jan 31
-2 °FPassing clouds.8 mph84%30.55 "Hg15 mi
10:53 PM-2 °FPassing clouds.8 mph77%30.55 "Hg15 mi
10:00 PM3 °FLight snow. Overcast.9 mph78%30.56 "Hg4 mi
9:00 PM5 °FLight snow. Overcast.8 mph72%30.58 "Hg15 mi
8:00 PM5 °FLight snow. Passing clouds.6 mph72%30.58 "Hg15 mi
7:00 PM5 °FLight snow. Passing clouds.8 mph78%30.60 "Hg15 mi
6:00 PM5 °FLight snow. Passing clouds.8 mph72%30.62 "Hg15 mi
5:00 PM5 °FPartly sunny.6 mph78%30.62 "Hg15 mi
4:00 PM5 °FLight snow. Partly sunny.7 mph72%30.61 "Hg15 mi
3:00 PM5 °FLight snow. Mostly cloudy.6 mph72%30.63 "Hg12 mi
2:00 PM5 °FPartly sunny.5 mph72%30.65 "Hg15 mi
1:00 PM5 °FPartly sunny.7 mph72%30.66 "Hg15 mi
12:00 PM3 °FLight snow. Broken clouds.5 mph78%30.67 "Hg15 mi
11:00 AM3 °FMostly cloudy.2 mph78%30.68 "Hg6 mi
10:00 AM3 °FLight snow. Cloudy.No wind78%30.68 "Hg6 mi
9:00 AM1 °FLight snow. Mostly cloudy.2 mph78%30.68 "Hg5 mi
8:54 AM1 °FLight snow. Mostly cloudy.3 mph78%30.68 "Hg5 mi
8:00 AM1 °FLight snow. Mostly cloudy.6 mph85%30.68 "Hg5 mi
7:00 AM1 °FLight snow. Mostly cloudy.6 mph85%30.67 "Hg3 mi
6:00 AM3 °FLight snow. Overcast.7 mph78%30.67 "Hg2 mi
Weather by CustomWeather, © 2014

See weather overviewHow to use our weather pages